Monticello, AR

2:21 PM CDT on April 27, 2017 (GMT -0500)
Monticello Municipal-Ellis

Weather History for KLLQ - August, 2013

Change the Weather History Date:

Monday, August 19, 2013

  Actual Average Record
Temperature  
Mean Temperature 78 °F -  
Max Temperature 91 °F 90 °F 104 °F (1999)
Min Temperature 66 °F 68 °F 56 °F (1992)
Cooling Degree Days 12    
Growing Degree Days 28 (Base 50)    
Moisture  
Dew Point 66 °F    
Average Humidity 77    
Maximum Humidity 94    
Minimum Humidity 43    
Precipitation  
Precipitation 0.01 in - - ()
Sea Level Pressure  
Sea Level Pressure 30.05 in    
Wind  
Wind Speed 1 mph (ENE)    
Max Wind Speed 10 mph    
Max Gust Speed -    
Visibility 7 miles    
Events Fog , Rain    
Averages and records for this station are not official NWS values.
T = Trace of Precipitation, MM = Missing Value Source: NWS Daily Summary

Daily Weather History Graph

Daily Weather History Graph

Search for Another Location

Airport or City:

Trip Planner

Search our weather history database for the weather conditions in past years. The results will help you decide how hot, cold, wet, or windy it might be!

Date:

Astronomy

Aug. 19, 2013 Rise Set
Actual Time 6:32 AM CDT 7:48 PM CDT
Civil Twilight 6:06 AM CDT 8:14 PM CDT
Nautical Twilight 5:34 AM CDT 8:45 PM CDT
Astronomical Twilight 5:02 AM CDT 9:17 PM CDT
Moon 6:39 PM CDT (8/19) 4:53 AM CDT (8/19)
Length of Visible Light 14h 08m
Length of Day
13h 16m
Waxing Gibbous, 97% of the Moon is Illuminated
Aug 19
Waxing Gibbous
Aug 20
Full
Aug 28
Last Quarter
Sep 5
New
Sep 12
First Quarter

Hourly Weather History & Observations

Time (CDT) Temp. Heat Index Dew Point Humidity Pressure Visibility Wind Dir Wind Speed Gust Speed Precip Events Conditions
12:53 AM 71.1 °F - 66.9 °F 87% 30.06 in 10.0 mi Calm Calm - N/A   Clear
1:53 AM 70.0 °F - 66.9 °F 90% 30.05 in 10.0 mi Calm Calm - N/A   Clear
2:53 AM 69.1 °F - 66.0 °F 90% 30.04 in 10.0 mi Calm Calm - N/A   Clear
3:53 AM 68.0 °F - 66.0 °F 93% 30.05 in 8.0 mi NE 3.5 mph - N/A   Partly Cloudy
4:53 AM 68.0 °F - 66.0 °F 93% 30.04 in 8.0 mi Calm Calm - 0.01 in   Clear
5:53 AM 68.0 °F - 66.0 °F 93% 30.06 in 7.0 mi Calm Calm - N/A   Clear
6:32 AM 66.2 °F - 64.4 °F 94% 30.07 in 5.0 mi Calm Calm - N/A   Partly Cloudy
6:50 AM 66.2 °F - 64.4 °F 94% 30.08 in 4.0 mi Calm Calm - N/A   Mostly Cloudy
6:53 AM 66.9 °F - 64.9 °F 93% 30.07 in 5.0 mi Calm Calm - N/A   Mostly Cloudy
7:36 AM 68.0 °F - 66.2 °F 94% 30.08 in 1.8 mi Calm Calm - N/A   Overcast
7:49 AM 68.0 °F - 66.2 °F 94% 30.08 in 0.8 mi Calm Calm - N/A   Mist
7:53 AM 69.1 °F - 66.9 °F 93% 30.08 in 0.5 mi Calm Calm - N/A Fog Fog
8:08 AM 69.8 °F - 66.2 °F 88% 30.09 in 0.2 mi Calm Calm - N/A Fog Fog
8:23 AM 69.8 °F - 68.0 °F 94% 30.09 in 0.5 mi Calm Calm - N/A Fog Fog
8:53 AM 70.0 °F - 68.0 °F 93% 30.09 in 1.2 mi Calm Calm - N/A   Overcast
9:12 AM 71.6 °F - 68.0 °F 88% 30.10 in 2.5 mi Calm Calm - N/A   Overcast
9:20 AM 71.6 °F - 69.8 °F 94% 30.10 in 7.0 mi Calm Calm - N/A   Overcast
9:45 AM 75.2 °F - 69.8 °F 83% 30.10 in 10.0 mi Calm Calm - N/A   Scattered Clouds
9:53 AM 77.0 °F - 69.1 °F 76% 30.09 in 10.0 mi Calm Calm - N/A   Partly Cloudy
10:53 AM 82.0 °F 85.5 °F 69.1 °F 65% 30.09 in 10.0 mi Calm Calm - N/A   Clear
11:53 AM 84.0 °F 86.3 °F 66.0 °F 55% 30.07 in 10.0 mi Calm Calm - N/A   Partly Cloudy
12:53 PM 87.1 °F 88.9 °F 64.9 °F 48% 30.06 in 10.0 mi Variable 6.9 mph - N/A   Scattered Clouds
1:53 PM 88.0 °F 88.7 °F 63.0 °F 43% 30.04 in 10.0 mi East 3.5 mph - N/A   Partly Cloudy
2:53 PM 86.0 °F 87.6 °F 64.9 °F 49% 30.02 in 10.0 mi ENE 9.2 mph - N/A   Mostly Cloudy
3:53 PM 88.0 °F 89.6 °F 64.9 °F 46% 30.00 in 10.0 mi ENE 10.4 mph - N/A   Mostly Cloudy
4:53 PM 89.1 °F 91.3 °F 66.0 °F 46% 29.99 in 10.0 mi East 8.1 mph - N/A   Mostly Cloudy
5:53 PM 87.1 °F 88.9 °F 64.9 °F 48% 29.99 in 10.0 mi ENE 8.1 mph - N/A   Clear
6:53 PM 84.9 °F 87.1 °F 66.0 °F 53% 29.99 in 10.0 mi ENE 8.1 mph - N/A   Scattered Clouds
7:53 PM 81.0 °F 83.3 °F 66.9 °F 62% 30.01 in 10.0 mi Calm Calm - N/A   Clear
8:53 PM 80.1 °F 82.3 °F 66.9 °F 64% 30.01 in 10.0 mi Calm Calm - N/A   Clear
9:53 PM 73.0 °F - 66.9 °F 81% 30.03 in 10.0 mi Calm Calm - 0.00 in Rain Light Rain
10:53 PM 73.0 °F - 66.9 °F 81% 30.02 in 10.0 mi Calm Calm - 0.00 in   Clear
11:53 PM 72.0 °F - 66.9 °F 84% 30.02 in 10.0 mi Calm Calm - N/A   Clear